www.pogodaiklimat.ru

Архив погоды в Туркестане (Южно-Казахстанская область, Казахстан)

Время
(UTC), дата
15 21.05
18 21.05
21 21.05
00 22.05
03 22.05
06 22.05
09 22.05
12 22.05
15 22.05
18 22.05
21 22.05
00 23.05
03 23.05
06 23.05
09 23.05
12 23.05
15 23.05
18 23.05
21 23.05
00 24.05
03 24.05
06 24.05
09 24.05
12 24.05
15 24.05
18 24.05
21 24.05
00 25.05
03 25.05
06 25.05
09 25.05
12 25.05
15 25.05
18 25.05
21 25.05
00 26.05
03 26.05
06 26.05
09 26.05
12 26.05
15 26.05
18 26.05
21 26.05
00 27.05
03 27.05
06 27.05
09 27.05
12 27.05
15 27.05
18 27.05
21 27.05
00 28.05
03 28.05
06 28.05
09 28.05
Ветер
(напр.,м/с)
Видим. Явления Облачность Т
(С)
Тd
(С)
f
(%)
Тe
(С)
Тes
(С)
Комфортность P
(гПа)
Po
(гПа)
Тmin
(С)
Tmax
(С)
R
(мм)
R24
(мм)
S
(см)
СЗ 15-18
{28}
10 км пыльная буря на расстоянии 9/5 600 м
[Cb cap Ac lent Ci sp]
+23.4 +7.5 36 +24 +24 комфорт 1004.3 980.9 +34.7
З 8
{18}
н/о {пыльная буря} 10/8 600 м
[Cb cap Ac lent]
+17.7 +14.3 80 +17 +17 прохладно 1008.7 984.8 +34.7
СЗ 4 н/о слаб. ливневой дождь 10/10 600 м
[Cb cap]
+13.8 +13.4 97 +12 +12 холодно 1010.6 986.4
СЗ 4 10 км {ливн. дождь} 10/8 600 м
[Cb cap Ac lent]
+13.3 +12.6 96 +11 +11 прохладно 1013.7 989.4
СЗ 5 50 км 9/4 600 м
[Cb cap Ac lent Ci sp]
+14.5 +13.4 93 +13 +14 очень
холодно
1015.9 991.6
З 3 50 км 9/4 600 м
[Cb cap Ci sp]
+18.3 +2.8 36 +19 +26 холодно 1016.6 992.5 +13.2 3
СЗ 5 50 км 8/8 600 м
[Cb cap]
+19.5 +2.2 32 +20 +21 холодно 1016.7 992.7
СЗ 4 50 км 8/8 600 м
[Cb cap Ci sp]
+21.0 -0.3 24 +21 +22 комфорт 1017.2 993.3
С 1 50 км ясно +18.9 +1.8 32 +20 +20 прохладно 1018.3 994.2 +21.9
В 1 н/о ясно +14.7 +4.9 52 +15 +15 холодно 1018.9 994.5 +21.9
В 2 н/о ясно +12.7 +6.9 68 +12 +12 холодно 1018.3 993.8
СВ 2 50 км 3/0
[Ci sp]
+12.2 +4.8 61 +11 +11 прохладно 1017.8 993.2
В 5 50 км 3/0
[Ci sp]
+19.1 +2.5 33 +19 +22 по сезону 1017.5 993.5
В 7 50 км 3/0
[Ci fib]
+22.7 -1.6 20 +22 +26 комфорт 1015.3 991.6 +11.8
В 9 50 км 1/0
[Ci fib]
+24.9 +1.7 22 +24 +25 комфорт 1012.9 989.4
В 9 50 км 3/0
[Ci sp]
+24.7 +0.5 20 +23 +24 комфорт 1011.3 987.8
В 8 50 км ясно +21.0 +0.9 26 +21 +21 комфорт 1011.6 987.9 +25.6
В 6 н/о ясно +18.0 +5.0 42 +17 +17 прохладно 1011.1 987.1 +25.6
В 7 н/о ясно +17.4 +2.0 36 +16 +16 по сезону 1009.4 985.4
В 6 50 км ясно +16.9 +1.5 35 +16 +16 по сезону 1009.0 985.0
В 7 50 км 1/0
[Ci sp]
+21.3 +4.4 33 +22 +23 комфорт 1008.4 984.8
В 5 50 км 3/0
[Ci sp]
+25.5 +5.6 28 +25 +34 комфорт 1006.9 983.6 +16.7
В 3 50 км 6/0
[Ci sp]
+27.1 +5.1 24 +26 +39 жарко 1005.2 982.1
В 4 50 км 8/0
[Ac lent Ci sp]
+28.0 +5.5 24 +27 +29 жарко 1004.5 981.5
штиль 0 50 км 9/3 600 м
[Cb cap Ac lent Ci sp]
+25.4 +7.7 32 +25 +25 комфорт 1005.3 982.1 +28.7
СВ 2 н/о 5/0
[Ci sp]
+21.6 +8.9 44 +23 +23 комфорт 1006.4 982.9 +28.7
СВ 1 н/о ясно +18.6 +8.9 53 +20 +20 тепло 1006.6 982.8
В 1 50 км 3/0
[Ac lent Ci sp]
+15.1 +9.5 69 +16 +16 по сезону 1007.8 983.8
ЮВ 4 50 км 3/0
[Ci sp]
+21.6 +11.9 54 +24 +28 комфорт 1008.6 985.0
В 2 50 км ясно +29.0 +6.0 23 +28 +45 жарко 1008.0 985.0 +15.0
Ю 1 50 км ясно +33.0 +0.2 12 +30 +50 жарко 1007.1 984.4
З 1 50 км 3/0
[Ci sp]
+34.6 -0.9 10 +31 +37 жарко 1006.7 984.1
В 2 50 км 6/3 600 м
[Cb cap Ac As]
+28.7 +5.8 23 +27 +27 жарко 1006.9 983.9 +34.8
В 3 н/о 6/0
[Ac As]
+26.3 +4.5 25 +25 +25 комфорт 1007.2 984.0 +34.8
В 2 н/о 6/0 +22.4 +7.4 38 +23 +23 комфорт 1007.5 983.8
СЗ 2 50 км ясно +19.8 +8.2 47 +21 +21 комфорт 1009.4 985.5
С 1 50 км ясно +24.8 +6.1 30 +25 +32 комфорт 1008.8 985.5
СЗ 7 10 км 8/0
[Ci]
+29.9 +8.5 26 +29 +33 жарко 1009.0 986.1 +18.8
СЗ 6 10 км 8/0
[Ci]
+32.4 +3.6 16 +30 +35 жарко 1008.8 986.0
СЗ 7 10 км 9/0
[Ac cast Ci sp]
+32.2 +3.1 16 +30 +30 жарко 1008.5 985.7
СЗ 7 10 км 9/3 600 м
[Cb cap Ac cast Ci sp]
+28.0 +5.1 23 +27 +27 жарко 1009.4 986.3 +32.7
С 6 н/о 8/3 600 м
[Cb cap Ac trans Ci sp]
+26.2 +3.6 23 +25 +25 комфорт 1009.1 985.8 +32.7
СЗ 7 н/о 3/0
[Ci sp]
+22.0 +0.7 24 +21 +21 комфорт 1009.1 985.5
СЗ 4 10 км 10/4 600 м
[Cb cap Ac As]
+20.5 +3.7 33 +21 +21 комфорт 1009.2 985.5
СЗ 5 10 км 10/6 600 м
[Cb cap Ac As]
+22.4 +7.5 38 +23 +24 комфорт 1010.4 986.8
В 5 10 км {ливн. дождь} 10/8 600 м
[Cb cap Ac As]
+24.1 +8.6 37 +25 +25 комфорт 1010.2 986.8 +20.4
Ю 4 10 км 10/6 600 м
[Cb cap Ac As]
+27.6 +8.0 29 +27 +29 жарко 1009.4 986.2
З 5 10 км 10/10 600 м
[Cb cap]
+23.0 +10.8 46 +25 +25 комфорт 1010.9 987.4
СВ 3 10 км в посл. час ливневой дождь 10/10 600 м
[Cb cap]
+17.0 +15.8 93 +17 +17 прохладно 1013.4 989.4 +28.3
ЮЗ 2 н/о в посл. час ливневой дождь 10/10 600 м
[Cb cap]
+16.6 +16.3 98 +17 +17 по сезону 1014.2 990.2 +28.3 0.6
штиль 0 н/о {ливн. дождь} 10/6 600 м
[Cb cap Ac As]
+15.5 +14.8 96 +15 +15 по сезону 1014.7 990.5
СЗ 3 10 км {ливн. дождь} 8/6 600 м
[Cb cap Ac As]
+14.1 +13.0 93 +13 +13 тепло 1016.1 991.8
З 3 10 км 9/6 600 м
[Cb cap Ac As]
+17.0 +15.1 89 +17 +18 тепло 1018.1 994.0
СЗ 7 10 км 9/8 600 м
[Cb cap Ac As]
+19.1 +12.1 64 +20 +20 тепло 1018.8 994.8 +13.9 2
СЗ 4 50 км 9/8 600 м
[Cb cap Ac As]
+20.9 +6.0 38 +22 +23 комфорт 1019.0 995.1
Местоположение метеостанции Туркестан (Южно-Казахстанская область, Казахстан): широта 43.27 долгота 68.22 высота над уровнем моря 207 м.
В архиве по умолчанию представлена погода в Туркестане за последнюю неделю. Архивные данные за месяц целиком и за предыдущие месяцы, начиная с января 2011 года, Вы можете получить, выбрав интересующий диапазон дат из раскрывающегося списка и нажав кнопку "Найти!".
*Определитесь, кто Вы:
Внимание! Время в таблицах - всемирное. Для получения местного времени необходимо прибавить поправку, которая равна 6 ч.
Смотрите также архив погоды в соседних городах и на ближайших метеорологических станциях:
Партнеры нашего сайта:
Купить светодиодные светильники
Огромный выбор светодиодного освещения в Екатеринбурге
sirius-led.ru

     
Пояснения к столбцам:
  • Ветер - указаны скорость ветра в м/с - средняя за 10 мин, порывы в срок и между сроками (в фигурных скобках) и направление, откуда дует ветер: С - северный,
  • СВ - северо-восточный, В - восточный, ЮВ - юго-восточный, Ю - южный, ЮЗ - юго-западный, З - западный, СЗ - северо-западный.
  • Видимость - горизонтальная дальность видимости в метрах или километрах. При видимости от 1 до 10 км при отсутствии осадков обычно наблюдается дымка, при ухудшении видимости до 1 км и менее - туман. В сухую погоду видимость может ухудшаться дымом, пылью или мглою.
  • Явления - указаны атмосферные явления, наблюдавшиеся в срок или в последний час перед сроком; фигурными скобками обозначены явления, наблюдавшиеся между сроками (за 1-3 часа до срока); квадратными скобками обозначены град или гололедные отложения с указанием их диаметра в мм.
  • Облачность - указаны через наклонную черту общая и нижняя облачность в баллах и высота нижней границы облаков в метрах; квадратными скобками обозначены формы облаков: Ci - перистые, Cs - перисто-слоистые, Cc - перисто-кучевые, Ac - высококучевые, As - высокослоистые, Sc - слоисто-кучевые, Ns - слоисто-дождевые, Cu - кучевые, Cb - кучево-дождевые. Подробнее классификацию облаков см. в Атласе облаков (PDF).
  • T - Температура воздуха - температура, измеренная на высоте 2 м над землей.
  • Td - Температура точки росы - температура, при понижении до которой содержащийся в воздухе водяной пар достигнет насыщения.
  • f - Относительная влажность воздуха - влажноcть воздуха, измеренная на высоте 2 м над землей.
  • Te - Эффективная температура - температура, которую ощущает одетый по сезону человек в тени. Характеристика душности погоды. При расчете учитывается влияние влажности воздуха и скорости ветра на теплоощущения человека.
  • Tes - Эффективная температура на солнце - температура, которую ощущает человек, с поправкой на солнечный нагрев. Характеристика знойности погоды. Зависит от высоты солнца над горизонтом, облачности и скорости ветра. Ночью, в пасмурную погоду, а также при ветре 12 м/с и более поправка равна нулю.
  • P - Атмосферное давление - приведенное к уровню моря атмосферное давление.
  • Po - Атмосферное давление - измеренное на уровне метеостанции атмосферное давление.
  • Tmin - Минимальная температура - минимум температуры воздуха на высоте 2 м над землей.
  • Tmax - Максимальная температура - максимум температуры воздуха на высоте 2 м над землей.
  • R - Количество осадков - Количество выпавших осадков за период времени, мм. При наведении курсора мыши на число - период времени, за который выпало указанное количество осадков.
  • R24 - Количество осадков - Количество выпавших осадков за 24 часа, мм.
  • S - Снежный покров - Высота снежного покрова, см. При наведении курсора мыши на число - состояние снежного покрова и степень покрытия местности в баллах.